#datetime,building,power
2024-02-17T00:00:00,thn,7.46
2024-02-17T00:01:00,thn,6.72
2024-02-17T00:02:00,thn,6.29
2024-02-17T00:03:00,thn,6.40
2024-02-17T00:04:00,thn,6.59
2024-02-17T00:05:00,thn,5.36
2024-02-17T00:06:00,thn,5.72
2024-02-17T00:07:00,thn,6.41
2024-02-17T00:08:00,thn,7.30
2024-02-17T00:09:00,thn,7.18
2024-02-17T00:10:00,thn,6.93
2024-02-17T00:11:00,thn,5.99
2024-02-17T00:12:00,thn,6.94
2024-02-17T00:13:00,thn,6.09
2024-02-17T00:14:00,thn,5.85
2024-02-17T00:15:00,thn,7.46
2024-02-17T00:16:00,thn,8.14
2024-02-17T00:17:00,thn,7.68
2024-02-17T00:18:00,thn,8.37
2024-02-17T00:19:00,thn,7.79
2024-02-17T00:20:00,thn,7.29
2024-02-17T00:21:00,thn,7.11
2024-02-17T00:22:00,thn,6.66
2024-02-17T00:23:00,thn,7.55
2024-02-17T00:24:00,thn,6.68
2024-02-17T00:25:00,thn,5.50
2024-02-17T00:26:00,thn,5.56
2024-02-17T00:27:00,thn,5.45
2024-02-17T00:28:00,thn,5.59
2024-02-17T00:29:00,thn,5.61
2024-02-17T00:30:00,thn,5.29
2024-02-17T00:31:00,thn,5.35
2024-02-17T00:32:00,thn,5.23
2024-02-17T00:33:00,thn,5.82
2024-02-17T00:34:00,thn,8.10
2024-02-17T00:35:00,thn,6.54
2024-02-17T00:36:00,thn,8.31
2024-02-17T00:37:00,thn,8.55
2024-02-17T00:38:00,thn,7.28
2024-02-17T00:39:00,thn,7.41
2024-02-17T00:40:00,thn,7.28
2024-02-17T00:41:00,thn,7.04
2024-02-17T00:42:00,thn,5.68
2024-02-17T00:43:00,thn,5.67
2024-02-17T00:44:00,thn,5.79
2024-02-17T00:45:00,thn,6.07
2024-02-17T00:46:00,thn,7.41
2024-02-17T00:47:00,thn,7.41
2024-02-17T00:48:00,thn,9.17
2024-02-17T00:49:00,thn,7.66
2024-02-17T00:50:00,thn,7.98
2024-02-17T00:51:00,thn,8.43
2024-02-17T00:52:00,thn,7.71
2024-02-17T00:53:00,thn,6.11
2024-02-17T00:54:00,thn,7.87
2024-02-17T00:55:00,thn,5.89
2024-02-17T00:56:00,thn,7.76
2024-02-17T00:57:00,thn,7.74
2024-02-17T00:58:00,thn,5.49
2024-02-17T00:59:00,thn,8.29
2024-02-17T01:00:00,thn,8.28
2024-02-17T01:01:00,thn,8.07
2024-02-17T01:02:00,thn,8.31
2024-02-17T01:03:00,thn,8.36
2024-02-17T01:04:00,thn,8.70
2024-02-17T01:05:00,thn,8.64
2024-02-17T01:06:00,thn,8.41
2024-02-17T01:07:00,thn,8.29
2024-02-17T01:08:00,thn,7.05
2024-02-17T01:09:00,thn,6.88
2024-02-17T01:10:00,thn,6.62
2024-02-17T01:11:00,thn,6.43
2024-02-17T01:12:00,thn,6.38
2024-02-17T01:13:00,thn,6.39
2024-02-17T01:14:00,thn,6.35
2024-02-17T01:15:00,thn,6.15
2024-02-17T01:16:00,thn,6.12
2024-02-17T01:17:00,thn,5.93
2024-02-17T01:18:00,thn,5.79
2024-02-17T01:19:00,thn,5.80
2024-02-17T01:20:00,thn,5.78
2024-02-17T01:21:00,thn,5.67
2024-02-17T01:22:00,thn,5.71
2024-02-17T01:23:00,thn,5.66
2024-02-17T01:24:00,thn,5.65
2024-02-17T01:25:00,thn,5.66
2024-02-17T01:26:00,thn,5.77
2024-02-17T01:27:00,thn,5.91
2024-02-17T01:28:00,thn,5.98
2024-02-17T01:29:00,thn,6.58
2024-02-17T01:30:00,thn,8.04
2024-02-17T01:31:00,thn,8.06
2024-02-17T01:32:00,thn,8.27
2024-02-17T01:33:00,thn,8.51
2024-02-17T01:34:00,thn,6.84
2024-02-17T01:35:00,thn,7.18
2024-02-17T01:36:00,thn,7.21
2024-02-17T01:37:00,thn,7.22
2024-02-17T01:38:00,thn,7.11
2024-02-17T01:39:00,thn,7.33
2024-02-17T01:40:00,thn,7.38
2024-02-17T01:41:00,thn,7.15
2024-02-17T01:42:00,thn,7.07
2024-02-17T01:43:00,thn,7.13
2024-02-17T01:44:00,thn,6.89
2024-02-17T01:45:00,thn,5.96
2024-02-17T01:46:00,thn,5.99
2024-02-17T01:47:00,thn,5.86
2024-02-17T01:48:00,thn,5.75
2024-02-17T01:49:00,thn,5.70
2024-02-17T01:50:00,thn,5.44
2024-02-17T01:51:00,thn,5.37
2024-02-17T01:52:00,thn,5.34
2024-02-17T01:53:00,thn,4.75
2024-02-17T01:54:00,thn,5.51
2024-02-17T01:55:00,thn,5.98
2024-02-17T01:56:00,thn,6.74
2024-02-17T01:57:00,thn,6.75
2024-02-17T01:58:00,thn,6.85
2024-02-17T01:59:00,thn,6.91
2024-02-17T02:00:00,thn,6.74
2024-02-17T02:01:00,thn,5.96
2024-02-17T02:02:00,thn,5.89
2024-02-17T02:03:00,thn,5.98
2024-02-17T02:04:00,thn,5.72
2024-02-17T02:05:00,thn,5.66
2024-02-17T02:06:00,thn,5.74
2024-02-17T02:07:00,thn,5.78
2024-02-17T02:08:00,thn,5.74
2024-02-17T02:09:00,thn,5.60
2024-02-17T02:10:00,thn,5.62
2024-02-17T02:11:00,thn,5.51
2024-02-17T02:12:00,thn,5.34
2024-02-17T02:13:00,thn,6.32
2024-02-17T02:14:00,thn,5.56
2024-02-17T02:15:00,thn,5.66
2024-02-17T02:16:00,thn,6.43
2024-02-17T02:17:00,thn,6.47
2024-02-17T02:18:00,thn,5.48
2024-02-17T02:19:00,thn,5.73
2024-02-17T02:20:00,thn,5.49
2024-02-17T02:21:00,thn,5.64
2024-02-17T02:22:00,thn,6.46
2024-02-17T02:23:00,thn,6.65
2024-02-17T02:24:00,thn,6.42
2024-02-17T02:25:00,thn,6.36
2024-02-17T02:26:00,thn,5.64
2024-02-17T02:27:00,thn,5.48
2024-02-17T02:28:00,thn,5.53
2024-02-17T02:29:00,thn,5.47
2024-02-17T02:30:00,thn,5.93
2024-02-17T02:31:00,thn,5.95
2024-02-17T02:32:00,thn,6.79
2024-02-17T02:33:00,thn,6.75
2024-02-17T02:34:00,thn,6.84
2024-02-17T02:35:00,thn,6.76
2024-02-17T02:36:00,thn,5.70
2024-02-17T02:37:00,thn,5.74
2024-02-17T02:38:00,thn,5.79
2024-02-17T02:39:00,thn,5.37
2024-02-17T02:40:00,thn,5.64
2024-02-17T02:41:00,thn,5.36
2024-02-17T02:42:00,thn,5.39
2024-02-17T02:43:00,thn,5.50
2024-02-17T02:44:00,thn,5.20
2024-02-17T02:45:00,thn,5.22
2024-02-17T02:46:00,thn,5.26
2024-02-17T02:47:00,thn,5.27
2024-02-17T02:48:00,thn,6.45
2024-02-17T02:49:00,thn,6.26
2024-02-17T02:50:00,thn,6.39
2024-02-17T02:51:00,thn,6.41
2024-02-17T02:52:00,thn,6.41
2024-02-17T02:53:00,thn,5.73
2024-02-17T02:54:00,thn,5.74
2024-02-17T02:55:00,thn,6.02
2024-02-17T02:56:00,thn,6.06
2024-02-17T02:57:00,thn,6.04
2024-02-17T02:58:00,thn,7.00
2024-02-17T02:59:00,thn,6.80
2024-02-17T03:00:00,thn,6.49
2024-02-17T03:01:00,thn,6.36
2024-02-17T03:02:00,thn,6.09
2024-02-17T03:03:00,thn,6.22
2024-02-17T03:04:00,thn,7.34
2024-02-17T03:05:00,thn,6.34
2024-02-17T03:06:00,thn,6.42
2024-02-17T03:07:00,thn,6.29
2024-02-17T03:08:00,thn,5.26
2024-02-17T03:09:00,thn,5.12
2024-02-17T03:10:00,thn,5.13
2024-02-17T03:11:00,thn,5.12
2024-02-17T03:12:00,thn,5.13
2024-02-17T03:13:00,thn,5.07
2024-02-17T03:14:00,thn,4.89
2024-02-17T03:15:00,thn,4.87
2024-02-17T03:16:00,thn,5.09
2024-02-17T03:17:00,thn,5.07
2024-02-17T03:18:00,thn,5.02
2024-02-17T03:19:00,thn,5.25
2024-02-17T03:20:00,thn,5.20
2024-02-17T03:21:00,thn,6.15
2024-02-17T03:22:00,thn,7.15
2024-02-17T03:23:00,thn,7.10
2024-02-17T03:24:00,thn,7.05
2024-02-17T03:25:00,thn,7.17
2024-02-17T03:26:00,thn,6.11
2024-02-17T03:27:00,thn,6.08
2024-02-17T03:28:00,thn,5.90
2024-02-17T03:29:00,thn,5.15
2024-02-17T03:30:00,thn,5.12
2024-02-17T03:31:00,thn,5.32
2024-02-17T03:32:00,thn,5.07
2024-02-17T03:33:00,thn,4.99
2024-02-17T03:34:00,thn,5.12
2024-02-17T03:35:00,thn,5.09
2024-02-17T03:36:00,thn,4.92
2024-02-17T03:37:00,thn,6.04
2024-02-17T03:38:00,thn,5.99
2024-02-17T03:39:00,thn,5.89
2024-02-17T03:40:00,thn,5.94
2024-02-17T03:41:00,thn,6.80
2024-02-17T03:42:00,thn,6.91
2024-02-17T03:43:00,thn,5.81
2024-02-17T03:44:00,thn,5.67
2024-02-17T03:45:00,thn,4.81
2024-02-17T03:46:00,thn,5.35
2024-02-17T03:47:00,thn,4.44
2024-02-17T03:48:00,thn,4.41
2024-02-17T03:49:00,thn,4.34
2024-02-17T03:50:00,thn,4.31
2024-02-17T03:51:00,thn,4.30
2024-02-17T03:52:00,thn,4.52
2024-02-17T03:53:00,thn,4.59
2024-02-17T03:54:00,thn,4.66
2024-02-17T03:55:00,thn,5.73
2024-02-17T03:56:00,thn,5.21
2024-02-17T03:57:00,thn,5.77
2024-02-17T03:58:00,thn,5.71
2024-02-17T03:59:00,thn,6.04
2024-02-17T04:00:00,thn,6.51
2024-02-17T04:01:00,thn,5.37
2024-02-17T04:02:00,thn,4.99
2024-02-17T04:03:00,thn,5.49
2024-02-17T04:04:00,thn,5.59
2024-02-17T04:05:00,thn,4.18
2024-02-17T04:06:00,thn,4.99
2024-02-17T04:07:00,thn,4.54
2024-02-17T04:08:00,thn,4.01
2024-02-17T04:09:00,thn,4.48
2024-02-17T04:10:00,thn,4.62
2024-02-17T04:11:00,thn,5.23
2024-02-17T04:12:00,thn,5.77
2024-02-17T04:13:00,thn,6.79
2024-02-17T04:14:00,thn,6.12
2024-02-17T04:15:00,thn,7.55
2024-02-17T04:16:00,thn,7.57
2024-02-17T04:17:00,thn,7.01
2024-02-17T04:18:00,thn,6.21
2024-02-17T04:19:00,thn,5.32
2024-02-17T04:20:00,thn,4.14
2024-02-17T04:21:00,thn,4.67
2024-02-17T04:22:00,thn,4.61
2024-02-17T04:23:00,thn,4.01
2024-02-17T04:24:00,thn,4.51
2024-02-17T04:25:00,thn,4.52
2024-02-17T04:26:00,thn,4.03
2024-02-17T04:27:00,thn,4.60
2024-02-17T04:28:00,thn,4.61
2024-02-17T04:29:00,thn,5.01
2024-02-17T04:30:00,thn,5.52
2024-02-17T04:31:00,thn,5.32
2024-02-17T04:32:00,thn,4.87
2024-02-17T04:33:00,thn,5.30
2024-02-17T04:34:00,thn,5.29
2024-02-17T04:35:00,thn,4.79
2024-02-17T04:36:00,thn,5.20
2024-02-17T04:37:00,thn,5.17
2024-02-17T04:38:00,thn,4.54
2024-02-17T04:39:00,thn,4.37
2024-02-17T04:40:00,thn,4.30
2024-02-17T04:41:00,thn,3.83
2024-02-17T04:42:00,thn,4.44
2024-02-17T04:43:00,thn,5.79
2024-02-17T04:44:00,thn,5.28
2024-02-17T04:45:00,thn,5.77
2024-02-17T04:46:00,thn,5.80
2024-02-17T04:47:00,thn,6.11
2024-02-17T04:48:00,thn,5.68
2024-02-17T04:49:00,thn,5.70
2024-02-17T04:50:00,thn,5.18
2024-02-17T04:51:00,thn,5.21
2024-02-17T04:52:00,thn,4.21
2024-02-17T04:53:00,thn,4.09
2024-02-17T04:54:00,thn,5.15
2024-02-17T04:55:00,thn,4.96
2024-02-17T04:56:00,thn,4.74
2024-02-17T04:57:00,thn,4.83
2024-02-17T04:58:00,thn,5.92
2024-02-17T04:59:00,thn,6.92
2024-02-17T05:00:00,thn,6.90
2024-02-17T05:01:00,thn,5.83
2024-02-17T05:02:00,thn,5.80
2024-02-17T05:03:00,thn,3.82
2024-02-17T05:04:00,thn,3.89
2024-02-17T05:05:00,thn,3.90
2024-02-17T05:06:00,thn,3.92
2024-02-17T05:07:00,thn,4.04
2024-02-17T05:08:00,thn,3.99
2024-02-17T05:09:00,thn,3.92
2024-02-17T05:10:00,thn,4.14
2024-02-17T05:11:00,thn,4.22
2024-02-17T05:12:00,thn,4.23
2024-02-17T05:13:00,thn,5.21
2024-02-17T05:14:00,thn,6.15
2024-02-17T05:15:00,thn,6.40
2024-02-17T05:16:00,thn,6.44
2024-02-17T05:17:00,thn,6.41
2024-02-17T05:18:00,thn,5.30
2024-02-17T05:19:00,thn,4.42
2024-02-17T05:20:00,thn,4.14
2024-02-17T05:21:00,thn,4.09
2024-02-17T05:22:00,thn,4.12
2024-02-17T05:23:00,thn,4.05
2024-02-17T05:24:00,thn,4.09
2024-02-17T05:25:00,thn,4.14
2024-02-17T05:26:00,thn,4.19
2024-02-17T05:27:00,thn,4.22
2024-02-17T05:28:00,thn,4.13
2024-02-17T05:29:00,thn,6.10
2024-02-17T05:30:00,thn,6.16
2024-02-17T05:31:00,thn,6.13
2024-02-17T05:32:00,thn,6.06
2024-02-17T05:33:00,thn,5.13
2024-02-17T05:34:00,thn,3.94
2024-02-17T05:35:00,thn,6.30
2024-02-17T05:36:00,thn,5.12
2024-02-17T05:37:00,thn,5.09
2024-02-17T05:38:00,thn,4.96
2024-02-17T05:39:00,thn,5.15
2024-02-17T05:40:00,thn,5.22
2024-02-17T05:41:00,thn,5.15
2024-02-17T05:42:00,thn,5.22
2024-02-17T05:43:00,thn,5.28
2024-02-17T05:44:00,thn,5.22
2024-02-17T05:45:00,thn,5.16
2024-02-17T05:46:00,thn,5.02
2024-02-17T05:47:00,thn,5.26
2024-02-17T05:48:00,thn,5.13
2024-02-17T05:49:00,thn,5.26
2024-02-17T05:50:00,thn,5.24
2024-02-17T05:51:00,thn,5.22
2024-02-17T05:52:00,thn,4.97
2024-02-17T05:53:00,thn,4.04
2024-02-17T05:54:00,thn,4.02
2024-02-17T05:55:00,thn,4.02
2024-02-17T05:56:00,thn,3.99
2024-02-17T05:57:00,thn,4.00
2024-02-17T05:58:00,thn,4.01
2024-02-17T05:59:00,thn,4.08
2024-02-17T06:00:00,thn,4.14
2024-02-17T06:01:00,thn,4.10
2024-02-17T06:02:00,thn,4.12
2024-02-17T06:03:00,thn,4.95
2024-02-17T06:04:00,thn,4.96
2024-02-17T06:05:00,thn,6.23
2024-02-17T06:06:00,thn,6.22
2024-02-17T06:07:00,thn,6.25
2024-02-17T06:08:00,thn,6.29
2024-02-17T06:09:00,thn,5.66
2024-02-17T06:10:00,thn,5.44
2024-02-17T06:11:00,thn,4.33
2024-02-17T06:12:00,thn,4.24
2024-02-17T06:13:00,thn,4.19
2024-02-17T06:14:00,thn,6.59
2024-02-17T06:15:00,thn,5.39
2024-02-17T06:16:00,thn,5.38
2024-02-17T06:17:00,thn,5.46
2024-02-17T06:18:00,thn,5.27
2024-02-17T06:19:00,thn,5.26
2024-02-17T06:20:00,thn,6.29
2024-02-17T06:21:00,thn,5.25
2024-02-17T06:22:00,thn,5.21
2024-02-17T06:23:00,thn,4.95
2024-02-17T06:24:00,thn,4.16
2024-02-17T06:25:00,thn,5.31
2024-02-17T06:26:00,thn,5.28
2024-02-17T06:27:00,thn,5.35
2024-02-17T06:28:00,thn,5.28
2024-02-17T06:29:00,thn,5.47
2024-02-17T06:30:00,thn,5.54
2024-02-17T06:31:00,thn,4.52
2024-02-17T06:32:00,thn,4.32
2024-02-17T06:33:00,thn,5.07
2024-02-17T06:34:00,thn,3.99
2024-02-17T06:35:00,thn,5.08
2024-02-17T06:36:00,thn,5.96
2024-02-17T06:37:00,thn,5.74
2024-02-17T06:38:00,thn,5.14
2024-02-17T06:39:00,thn,5.20
2024-02-17T06:40:00,thn,5.23
2024-02-17T06:41:00,thn,5.21
2024-02-17T06:42:00,thn,6.01
2024-02-17T06:43:00,thn,5.31
2024-02-17T06:44:00,thn,5.23
2024-02-17T06:45:00,thn,6.32
2024-02-17T06:46:00,thn,6.28
2024-02-17T06:47:00,thn,5.42
2024-02-17T06:48:00,thn,5.24
2024-02-17T06:49:00,thn,5.11
2024-02-17T06:50:00,thn,4.74
2024-02-17T06:51:00,thn,3.94
2024-02-17T06:52:00,thn,3.91
2024-02-17T06:53:00,thn,3.98
2024-02-17T06:54:00,thn,6.50
2024-02-17T06:55:00,thn,5.25
2024-02-17T06:56:00,thn,5.20
2024-02-17T06:57:00,thn,5.09
2024-02-17T06:58:00,thn,5.10
2024-02-17T06:59:00,thn,4.89
2024-02-17T07:00:00,thn,4.87
2024-02-17T07:01:00,thn,4.79
2024-02-17T07:02:00,thn,3.97
2024-02-17T07:03:00,thn,4.99
2024-02-17T07:04:00,thn,5.04
2024-02-17T07:05:00,thn,5.07
2024-02-17T07:06:00,thn,5.01
2024-02-17T07:07:00,thn,4.99
2024-02-17T07:08:00,thn,5.19
2024-02-17T07:09:00,thn,4.12
2024-02-17T07:10:00,thn,4.29
2024-02-17T07:11:00,thn,5.19
2024-02-17T07:12:00,thn,4.08
2024-02-17T07:13:00,thn,4.09
2024-02-17T07:14:00,thn,4.46
2024-02-17T07:15:00,thn,4.19
2024-02-17T07:16:00,thn,4.24
2024-02-17T07:17:00,thn,4.27
2024-02-17T07:18:00,thn,4.34
2024-02-17T07:19:00,thn,4.03
2024-02-17T07:20:00,thn,4.03
2024-02-17T07:21:00,thn,4.02
2024-02-17T07:22:00,thn,3.99
2024-02-17T07:23:00,thn,3.98
2024-02-17T07:24:00,thn,4.91
2024-02-17T07:25:00,thn,4.88
2024-02-17T07:26:00,thn,5.10
2024-02-17T07:27:00,thn,5.11
2024-02-17T07:28:00,thn,5.05
2024-02-17T07:29:00,thn,4.01
2024-02-17T07:30:00,thn,4.89
2024-02-17T07:31:00,thn,3.95
2024-02-17T07:32:00,thn,5.18
2024-02-17T07:33:00,thn,6.12
2024-02-17T07:34:00,thn,6.00
2024-02-17T07:35:00,thn,6.22
2024-02-17T07:36:00,thn,6.18
2024-02-17T07:37:00,thn,6.06
2024-02-17T07:38:00,thn,5.08
2024-02-17T07:39:00,thn,4.84
2024-02-17T07:40:00,thn,4.04
2024-02-17T07:41:00,thn,4.97
2024-02-17T07:42:00,thn,4.17
2024-02-17T07:43:00,thn,4.15
2024-02-17T07:44:00,thn,5.29
2024-02-17T07:45:00,thn,5.00
2024-02-17T07:46:00,thn,5.22
2024-02-17T07:47:00,thn,5.00
2024-02-17T07:48:00,thn,4.90
2024-02-17T07:49:00,thn,4.72
2024-02-17T07:50:00,thn,3.83
2024-02-17T07:51:00,thn,3.74
2024-02-17T07:52:00,thn,4.69
2024-02-17T07:53:00,thn,4.00
2024-02-17T07:54:00,thn,4.51
2024-02-17T07:55:00,thn,4.51
2024-02-17T07:56:00,thn,4.57
2024-02-17T07:57:00,thn,4.56
2024-02-17T07:58:00,thn,4.08
2024-02-17T07:59:00,thn,4.11
2024-02-17T08:00:00,thn,4.16
2024-02-17T08:01:00,thn,4.17
2024-02-17T08:02:00,thn,4.04
2024-02-17T08:03:00,thn,4.96
2024-02-17T08:04:00,thn,4.24
2024-02-17T08:05:00,thn,5.33
2024-02-17T08:06:00,thn,5.29
2024-02-17T08:07:00,thn,5.30
2024-02-17T08:08:00,thn,6.39
2024-02-17T08:09:00,thn,6.21
2024-02-17T08:10:00,thn,5.26
2024-02-17T08:11:00,thn,5.08
2024-02-17T08:12:00,thn,6.28
2024-02-17T08:13:00,thn,6.39
2024-02-17T08:14:00,thn,7.25
2024-02-17T08:15:00,thn,6.91
2024-02-17T08:16:00,thn,6.37
2024-02-17T08:17:00,thn,7.51
2024-02-17T08:18:00,thn,5.17
2024-02-17T08:19:00,thn,5.13
2024-02-17T08:20:00,thn,5.24
2024-02-17T08:21:00,thn,5.20
2024-02-17T08:22:00,thn,6.81
2024-02-17T08:23:00,thn,5.28
2024-02-17T08:24:00,thn,5.40
2024-02-17T08:25:00,thn,6.44
2024-02-17T08:26:00,thn,6.61
2024-02-17T08:27:00,thn,6.79
2024-02-17T08:28:00,thn,6.84
2024-02-17T08:29:00,thn,6.73
2024-02-17T08:30:00,thn,6.84
2024-02-17T08:31:00,thn,6.74
2024-02-17T08:32:00,thn,5.85
2024-02-17T08:33:00,thn,5.79
2024-02-17T08:34:00,thn,5.75
2024-02-17T08:35:00,thn,5.55
2024-02-17T08:36:00,thn,5.96
2024-02-17T08:37:00,thn,5.54
2024-02-17T08:38:00,thn,5.47
2024-02-17T08:39:00,thn,5.45
2024-02-17T08:40:00,thn,5.40
2024-02-17T08:41:00,thn,5.40
2024-02-17T08:42:00,thn,5.18
2024-02-17T08:43:00,thn,5.16
2024-02-17T08:44:00,thn,4.98
2024-02-17T08:45:00,thn,5.07
2024-02-17T08:46:00,thn,5.96
2024-02-17T08:47:00,thn,8.07
2024-02-17T08:48:00,thn,7.17
2024-02-17T08:49:00,thn,7.43
2024-02-17T08:50:00,thn,8.16
2024-02-17T08:51:00,thn,8.06
2024-02-17T08:52:00,thn,7.01
2024-02-17T08:53:00,thn,5.91
2024-02-17T08:54:00,thn,5.30
2024-02-17T08:55:00,thn,5.13
2024-02-17T08:56:00,thn,5.14
2024-02-17T08:57:00,thn,5.30
2024-02-17T08:58:00,thn,6.00
2024-02-17T08:59:00,thn,5.71
2024-02-17T09:00:00,thn,5.71
2024-02-17T09:01:00,thn,6.00
2024-02-17T09:02:00,thn,5.95
2024-02-17T09:03:00,thn,4.85
2024-02-17T09:04:00,thn,4.99
2024-02-17T09:05:00,thn,4.97
2024-02-17T09:06:00,thn,4.79
2024-02-17T09:07:00,thn,5.99
2024-02-17T09:08:00,thn,6.50
2024-02-17T09:09:00,thn,7.00
2024-02-17T09:10:00,thn,6.10
2024-02-17T09:11:00,thn,6.11
2024-02-17T09:12:00,thn,5.03
2024-02-17T09:13:00,thn,5.06
2024-02-17T09:14:00,thn,5.07
2024-02-17T09:15:00,thn,4.92
2024-02-17T09:16:00,thn,5.07
2024-02-17T09:17:00,thn,5.15
2024-02-17T09:18:00,thn,5.14
2024-02-17T09:19:00,thn,5.13
2024-02-17T09:20:00,thn,5.28
2024-02-17T09:21:00,thn,5.22
2024-02-17T09:22:00,thn,5.10
2024-02-17T09:23:00,thn,7.26
2024-02-17T09:24:00,thn,6.29
2024-02-17T09:25:00,thn,6.15
2024-02-17T09:26:00,thn,6.34
2024-02-17T09:27:00,thn,6.43
2024-02-17T09:28:00,thn,7.72
2024-02-17T09:29:00,thn,7.91
2024-02-17T09:30:00,thn,7.71
2024-02-17T09:31:00,thn,7.36
2024-02-17T09:32:00,thn,7.36
2024-02-17T09:33:00,thn,6.11
2024-02-17T09:34:00,thn,5.09
2024-02-17T09:35:00,thn,5.11
2024-02-17T09:36:00,thn,5.26
2024-02-17T09:37:00,thn,6.10
2024-02-17T09:38:00,thn,5.25
2024-02-17T09:39:00,thn,5.34
2024-02-17T09:40:00,thn,5.29
2024-02-17T09:41:00,thn,5.29
2024-02-17T09:42:00,thn,5.26
2024-02-17T09:43:00,thn,5.23
2024-02-17T09:44:00,thn,5.42
2024-02-17T09:45:00,thn,5.42
2024-02-17T09:46:00,thn,5.45
2024-02-17T09:47:00,thn,5.70
2024-02-17T09:48:00,thn,5.72
2024-02-17T09:49:00,thn,5.54
2024-02-17T09:50:00,thn,4.51
2024-02-17T09:51:00,thn,6.50
2024-02-17T09:52:00,thn,5.39
2024-02-17T09:53:00,thn,5.58
2024-02-17T09:54:00,thn,6.38
2024-02-17T09:55:00,thn,5.35
2024-02-17T09:56:00,thn,5.56
2024-02-17T09:57:00,thn,5.34
2024-02-17T09:58:00,thn,6.53
2024-02-17T09:59:00,thn,6.76
2024-02-17T10:00:00,thn,6.69
2024-02-17T10:01:00,thn,6.62
2024-02-17T10:02:00,thn,8.97
2024-02-17T10:03:00,thn,7.76
2024-02-17T10:04:00,thn,7.85
2024-02-17T10:05:00,thn,7.86
2024-02-17T10:06:00,thn,6.42
2024-02-17T10:07:00,thn,6.48
2024-02-17T10:08:00,thn,7.74
2024-02-17T10:09:00,thn,6.52
2024-02-17T10:10:00,thn,5.91
2024-02-17T10:11:00,thn,5.25
2024-02-17T10:12:00,thn,5.12
2024-02-17T10:13:00,thn,4.71
2024-02-17T10:14:00,thn,5.30
2024-02-17T10:15:00,thn,5.51
2024-02-17T10:16:00,thn,6.40
2024-02-17T10:17:00,thn,6.66
2024-02-17T10:18:00,thn,6.53
2024-02-17T10:19:00,thn,5.85
2024-02-17T10:20:00,thn,5.79
2024-02-17T10:21:00,thn,5.49
2024-02-17T10:22:00,thn,5.50
2024-02-17T10:23:00,thn,5.46
2024-02-17T10:24:00,thn,5.52
2024-02-17T10:25:00,thn,6.35
2024-02-17T10:26:00,thn,5.43
2024-02-17T10:27:00,thn,6.42
2024-02-17T10:28:00,thn,6.09
2024-02-17T10:29:00,thn,5.40
2024-02-17T10:30:00,thn,5.36
2024-02-17T10:31:00,thn,5.60
2024-02-17T10:32:00,thn,4.42
2024-02-17T10:33:00,thn,5.52
2024-02-17T10:34:00,thn,5.54
2024-02-17T10:35:00,thn,5.70
2024-02-17T10:36:00,thn,6.87
2024-02-17T10:37:00,thn,6.76
2024-02-17T10:38:00,thn,5.67
2024-02-17T10:39:00,thn,5.79
2024-02-17T10:40:00,thn,5.99
2024-02-17T10:41:00,thn,6.15
2024-02-17T10:42:00,thn,6.19
2024-02-17T10:43:00,thn,7.29
2024-02-17T10:44:00,thn,7.54
2024-02-17T10:45:00,thn,7.39
2024-02-17T10:46:00,thn,6.24
2024-02-17T10:47:00,thn,5.85
2024-02-17T10:48:00,thn,7.95
2024-02-17T10:49:00,thn,5.77
2024-02-17T10:50:00,thn,6.62
2024-02-17T10:51:00,thn,7.61
2024-02-17T10:52:00,thn,8.23
2024-02-17T10:53:00,thn,7.79
2024-02-17T10:54:00,thn,9.50
2024-02-17T10:55:00,thn,9.58
2024-02-17T10:56:00,thn,8.23
2024-02-17T10:57:00,thn,7.27
2024-02-17T10:58:00,thn,6.53
2024-02-17T10:59:00,thn,6.65
2024-02-17T11:00:00,thn,6.50
2024-02-17T11:01:00,thn,6.59
2024-02-17T11:02:00,thn,6.56
2024-02-17T11:03:00,thn,6.58
2024-02-17T11:04:00,thn,6.60
2024-02-17T11:05:00,thn,5.54
2024-02-17T11:06:00,thn,5.54
2024-02-17T11:07:00,thn,6.43
2024-02-17T11:08:00,thn,6.16
2024-02-17T11:09:00,thn,6.08
2024-02-17T11:10:00,thn,8.10
2024-02-17T11:11:00,thn,7.99
2024-02-17T11:12:00,thn,8.10
2024-02-17T11:13:00,thn,12.68
2024-02-17T11:14:00,thn,12.66
2024-02-17T11:15:00,thn,11.65
2024-02-17T11:16:00,thn,11.78
2024-02-17T11:17:00,thn,11.71
2024-02-17T11:18:00,thn,11.38
2024-02-17T11:19:00,thn,11.40
2024-02-17T11:20:00,thn,11.51
2024-02-17T11:21:00,thn,11.39
2024-02-17T11:22:00,thn,11.07
2024-02-17T11:23:00,thn,11.16
2024-02-17T11:24:00,thn,9.82
2024-02-17T11:25:00,thn,9.66
2024-02-17T11:26:00,thn,9.78
2024-02-17T11:27:00,thn,9.50
2024-02-17T11:28:00,thn,9.14
2024-02-17T11:29:00,thn,9.06
2024-02-17T11:30:00,thn,8.93
2024-02-17T11:31:00,thn,10.09
2024-02-17T11:32:00,thn,11.05
2024-02-17T11:33:00,thn,10.96
2024-02-17T11:34:00,thn,11.69
2024-02-17T11:35:00,thn,12.72
2024-02-17T11:36:00,thn,12.35
2024-02-17T11:37:00,thn,12.39
2024-02-17T11:38:00,thn,11.67
2024-02-17T11:39:00,thn,11.67
2024-02-17T11:40:00,thn,11.64
2024-02-17T11:41:00,thn,11.60
2024-02-17T11:42:00,thn,11.66
2024-02-17T11:43:00,thn,10.38
2024-02-17T11:44:00,thn,9.74
2024-02-17T11:45:00,thn,9.81
2024-02-17T11:46:00,thn,9.52
2024-02-17T11:47:00,thn,9.63
2024-02-17T11:48:00,thn,9.95
2024-02-17T11:49:00,thn,14.39
2024-02-17T11:50:00,thn,13.79
2024-02-17T11:51:00,thn,13.79
2024-02-17T11:52:00,thn,13.81
2024-02-17T11:53:00,thn,13.57
2024-02-17T11:54:00,thn,13.36
2024-02-17T11:55:00,thn,14.33
2024-02-17T11:56:00,thn,15.39
2024-02-17T11:57:00,thn,15.45
2024-02-17T11:58:00,thn,16.81
2024-02-17T11:59:00,thn,16.72
2024-02-17T12:00:00,thn,16.54
2024-02-17T12:01:00,thn,16.40
2024-02-17T12:02:00,thn,15.94
2024-02-17T12:03:00,thn,15.96
2024-02-17T12:04:00,thn,14.79
2024-02-17T12:05:00,thn,14.15
2024-02-17T12:06:00,thn,13.66
2024-02-17T12:07:00,thn,13.91
2024-02-17T12:08:00,thn,13.94
2024-02-17T12:09:00,thn,13.33
2024-02-17T12:10:00,thn,5.32
2024-02-17T12:11:00,thn,10.15
2024-02-17T12:12:00,thn,10.18
2024-02-17T12:13:00,thn,9.65
2024-02-17T12:14:00,thn,9.77
2024-02-17T12:15:00,thn,10.56
2024-02-17T12:16:00,thn,10.27
2024-02-17T12:17:00,thn,10.65
2024-02-17T12:18:00,thn,10.89
2024-02-17T12:19:00,thn,11.37
2024-02-17T12:20:00,thn,12.03
2024-02-17T12:21:00,thn,11.37
2024-02-17T12:22:00,thn,10.56
2024-02-17T12:23:00,thn,12.14
2024-02-17T12:24:00,thn,11.59
2024-02-17T12:25:00,thn,10.44
2024-02-17T12:26:00,thn,10.75
2024-02-17T12:27:00,thn,8.96
2024-02-17T12:28:00,thn,8.98
2024-02-17T12:29:00,thn,8.88
2024-02-17T12:30:00,thn,9.04
2024-02-17T12:31:00,thn,9.04
2024-02-17T12:32:00,thn,8.98
2024-02-17T12:33:00,thn,8.85
2024-02-17T12:34:00,thn,8.85
2024-02-17T12:35:00,thn,14.31
2024-02-17T12:36:00,thn,14.79
2024-02-17T12:37:00,thn,14.74
2024-02-17T12:38:00,thn,14.72
2024-02-17T12:39:00,thn,14.69
2024-02-17T12:40:00,thn,14.72
2024-02-17T12:41:00,thn,14.80
2024-02-17T12:42:00,thn,11.34
2024-02-17T12:43:00,thn,12.33
2024-02-17T12:44:00,thn,11.16
2024-02-17T12:45:00,thn,15.25
2024-02-17T12:46:00,thn,15.24
2024-02-17T12:47:00,thn,14.21
2024-02-17T12:48:00,thn,9.88
2024-02-17T12:49:00,thn,9.31
2024-02-17T12:50:00,thn,9.33
2024-02-17T12:51:00,thn,13.77
2024-02-17T12:52:00,thn,13.23
2024-02-17T12:53:00,thn,14.00
2024-02-17T12:54:00,thn,10.34
2024-02-17T12:55:00,thn,10.02
2024-02-17T12:56:00,thn,14.16
2024-02-17T12:57:00,thn,14.95
2024-02-17T12:58:00,thn,14.28
2024-02-17T12:59:00,thn,10.32
2024-02-17T13:00:00,thn,10.40
2024-02-17T13:01:00,thn,11.13
2024-02-17T13:02:00,thn,14.65
2024-02-17T13:03:00,thn,14.67
2024-02-17T13:04:00,thn,14.65
2024-02-17T13:05:00,thn,9.78
2024-02-17T13:06:00,thn,10.19
2024-02-17T13:07:00,thn,10.08
2024-02-17T13:08:00,thn,9.88
2024-02-17T13:09:00,thn,9.95
2024-02-17T13:10:00,thn,9.96
2024-02-17T13:11:00,thn,9.43
2024-02-17T13:12:00,thn,9.28
2024-02-17T13:13:00,thn,9.80
2024-02-17T13:14:00,thn,9.76
2024-02-17T13:15:00,thn,9.63
2024-02-17T13:16:00,thn,9.62
2024-02-17T13:17:00,thn,8.52
2024-02-17T13:18:00,thn,8.63
2024-02-17T13:19:00,thn,9.61
2024-02-17T13:20:00,thn,9.55
2024-02-17T13:21:00,thn,9.55
2024-02-17T13:22:00,thn,9.53
2024-02-17T13:23:00,thn,9.95
2024-02-17T13:24:00,thn,9.91
2024-02-17T13:25:00,thn,9.99
2024-02-17T13:26:00,thn,11.20
2024-02-17T13:27:00,thn,10.24
2024-02-17T13:28:00,thn,10.33
2024-02-17T13:29:00,thn,10.34
2024-02-17T13:30:00,thn,10.24
2024-02-17T13:31:00,thn,9.34
2024-02-17T13:32:00,thn,10.64
2024-02-17T13:33:00,thn,11.26
2024-02-17T13:34:00,thn,11.28
2024-02-17T13:35:00,thn,12.09
2024-02-17T13:36:00,thn,7.78
2024-02-17T13:37:00,thn,8.09
2024-02-17T13:38:00,thn,8.34
2024-02-17T13:39:00,thn,6.66
2024-02-17T13:40:00,thn,6.57
2024-02-17T13:41:00,thn,6.57
2024-02-17T13:42:00,thn,6.55